Dewpoint
17 17 18 19 20 20 20 20 19 19 18 18 17 17 18 19 19 19 21 21 20 19 19 19 19 20 21 26 29 30 31 32 33 33 33 32 32 32 32 32 32 32 32 32 32 33 33 33 33 33 33 34 34 34 34 34 34 35 35 36 37 37 38 38 39 39 39 39 40 40 40 41 41 41 41 41 41 42 42 42 42 42 42 42 42 42
18 18 19 20 20 20 19 19 19 18 17 17 17 18 18 18 17 18 18 20 20 19 19 19 19 19 19 24 28 31 32 32 32 32 32 31 31 31 31 31 31 32 32 32 32 32 32 33 33 33 33 33 34 34 34 34 34 34 35 36 36 37 37 37 38 38 38 38 39 39 39 39 39 39 39 39 39 39 40 40 40 41 41 41 41 41
18 19 19 20 20 19 18 18 18 18 17 17 18 18 18 18 18 18 18 19 19 19 19 19 20 20 21 25 29 32 32 32 31 31 30 30 30 31 31 31 31 31 32 32 32 32 32 32 33 33 33 33 33 34 34 34 34 34 35 35 35 36 36 36 36 36 36 37 37 37 37 37 37 37 38 38 38 38 38 39 39 39 39 39 40 40
19 19 19 19 19 19 18 18 18 18 19 19 19 19 19 18 18 18 19 19 19 19 20 20 21 22 24 25 28 30 31 30 30 30 30 30 30 30 30 31 31 31 31 31 32 32 32 32 32 33 33 33 33 34 34 34 34 34 34 35 35 35 35 35 35 35 35 35 35 36 36 36 36 36 37 37 37 38 38 38 38 38 38 39 39 39
19 19 20 19 19 19 19 19 19 19 20 20 19 19 19 18 19 20 20 20 20 20 21 22 24 25 25 25 26 28 29 29 29 29 29 30 30 30 30 30 30 31 31 31 31 32 32 32 32 33 33 33 33 34 34 34 34 34 34 34 34 34 34 34 34 34 34 34 35 35 35 35 35 36 36 36 37 37 37 38 38 38 38 39 39 39
20 20 21 20 19 19 20 20 21 21 20 20 19 19 19 19 20 20 21 21 22 22 24 25 25 25 24 23 24 25 27 28 28 28 29 29 29 30 30 30 30 30 30 31 31 31 32 32 32 32 33 33 33 33 34 34 34 34 34 34 34 34 34 34 34 34 34 34 34 34 34 34 35 35 35 36 36 36 37 37 38 38 38 39 39 39
21 21 21 21 21 21 21 21 21 21 20 20 20 20 20 21 21 21 21 22 23 25 25 25 24 22 20 20 22 24 25 26 27 27 28 28 29 29 29 30 30 30 30 31 31 31 32 32 32 32 33 33 33 33 33 33 33 33 33 33 33 33 33 33 33 33 33 33 34 34 34 34 34 34 35 35 35 36 36 37 37 38 38 38 39 39
21 22 22 21 21 21 21 21 21 21 21 20 20 20 21 22 22 23 23 24 25 25 24 22 20 18 17 17 20 21 21 22 22 23 25 25 26 28 28 29 30 30 30 30 31 31 31 32 32 32 33 33 33 33 33 33 33 32 32 32 33 33 33 33 33 33 33 33 33 33 33 34 34 34 34 34 35 35 36 37 37 38 38 39 39 39
23 22 22 21 21 21 21 21 21 21 21 21 21 21 22 23 24 25 25 25 24 22 20 17 17 17 17 18 18 19 21 21 21 21 21 22 23 25 27 28 29 30 30 30 31 31 31 31 32 32 32 32 32 32 32 32 32 32 32 32 32 32 32 32 32 32 32 33 33 33 33 33 34 34 34 35 35 36 36 37 38 39 39 39 40 40
23 22 21 21 21 22 21 21 21 21 22 23 24 24 25 25 25 25 23 21 20 18 18 17 17 18 18 18 18 19 21 21 23 24 25 24 25 26 27 27 28 29 30 30 30 31 31 31 31 31 31 31 31 31 31 31 31 31 31 31 31 31 31 32 32 32 32 32 33 33 33 34 34 34 35 35 36 36 37 38 39 39 39 40 41 41
22 21 21 21 22 23 23 22 22 23 24 25 26 27 28 26 24 21 18 17 16 17 18 18 18 18 18 18 18 19 19 20 21 23 25 26 27 27 27 27 28 28 29 30 30 30 30 30 30 30 30 30 30 30 30 30 30 30 30 30 31 31 31 31 31 32 32 33 33 34 34 34 35 35 35 35 36 36 37 38 38 39 39 40 40 41
21 22 22 23 23 23 23 24 25 26 27 27 25 23 22 21 19 18 16 16 17 17 18 18 19 19 19 18 18 19 19 18 19 19 21 22 23 25 25 25 25 27 28 28 29 29 29 29 29 29 29 29 29 30 29 29 29 30 30 30 30 30 31 31 31 32 32 33 34 34 34 35 35 35 35 35 36 36 37 37 38 38 39 39 40 40
23 23 24 24 24 24 25 25 25 26 25 23 20 18 16 16 17 17 18 18 18 18 18 18 19 19 19 19 19 19 19 19 19 19 19 20 21 21 21 22 23 23 24 24 24 24 26 27 28 28 28 28 28 28 29 28 29 29 30 30 30 30 31 31 32 32 33 33 34 34 34 34 35 35 35 35 36 36 37 37 37 37 38 38 39 39
25 25 25 25 24 24 24 24 23 22 21 19 17 16 16 17 18 18 18 18 18 19 19 18 18 19 19 19 20 20 20 19 19 20 20 20 21 21 22 22 22 22 21 21 20 21 24 25 25 25 26 26 27 27 27 28 29 29 30 30 30 31 31 31 32 32 33 33 33 34 34 34 34 35 35 36 36 36 37 37 37 37 37 38 38 38
25 25 25 24 23 23 22 21 21 19 18 18 17 18 18 18 18 18 18 18 18 18 18 18 18 18 19 19 20 20 20 20 20 20 21 21 22 23 23 22 21 21 20 19 19 20 23 23 22 21 22 24 25 25 26 27 28 30 30 30 30 31 31 31 32 32 32 33 33 33 34 34 34 35 35 36 36 36 36 36 37 37 37 37 37 37
26 25 24 23 22 21 21 20 19 19 18 18 18 18 18 18 18 18 18 18 18 19 19 19 19 19 19 20 21 21 21 21 21 21 22 23 23 23 22 21 20 19 19 19 19 19 21 20 20 20 21 23 25 27 27 28 29 30 30 30 30 31 31 31 32 32 32 32 33 33 34 34 34 35 35 35 36 36 36 36 36 36 36 37 37 37
25 25 24 23 22 21 20 20 19 19 19 19 19 19 19 19 19 19 19 19 19 20 20 20 20 19 19 20 21 21 22 22 23 23 23 22 22 21 21 20 19 19 18 19 19 19 19 19 20 20 21 24 26 27 28 28 29 30 30 30 30 30 31 31 31 32 32 32 33 33 33 34 34 34 34 35 35 35 35 36 36 36 36 37 37 37
25 24 23 22 21 21 20 20 19 19 19 19 19 19 19 20 20 21 21 21 21 21 21 21 21 21 21 20 21 21 23 23 23 23 22 21 20 20 20 19 19 18 18 18 18 19 19 19 19 20 21 25 27 27 28 28 29 29 30 30 30 30 30 31 31 31 32 32 32 33 33 33 34 34 34 34 34 35 35 35 35 36 36 36 37 37
24 23 23 22 21 21 20 20 20 19 19 19 19 20 20 21 21 21 21 21 22 22 22 22 22 22 22 22 22 22 23 23 23 22 21 20 19 19 19 19 19 19 18 18 18 19 19 19 21 23 25 26 27 27 28 28 29 29 30 30 30 30 30 31 31 31 32 32 32 32 33 33 33 33 33 34 34 34 34 35 35 36 36 37 37 37
24 24 23 22 21 21 21 21 21 20 20 21 21 21 21 21 22 22 22 22 23 24 24 24 24 24 23 23 22 22 22 21 21 20 19 19 19 18 18 18 18 18 17 17 18 18 18 19 20 22 25 26 27 27 28 28 29 29 30 30 30 30 30 31 31 31 31 32 32 32 32 32 32 33 33 33 34 34 34 35 35 36 36 36 36 36
25 24 23 22 22 22 21 21 21 21 22 23 23 22 22 22 22 23 23 24 25 25 26 25 25 23 22 21 21 21 21 20 20 20 19 19 18 18 18 18 17 17 17 17 17 18 18 18 18 19 22 25 26 27 28 28 29 29 29 30 30 30 30 31 31 31 31 31 32 32 32 32 32 32 33 33 33 34 34 35 35 35 35 35 35 36
25 24 23 23 23 22 22 22 22 24 25 25 24 24 23 24 24 24 25 26 26 26 25 24 23 22 21 21 20 20 21 20 20 20 19 18 18 17 17 17 17 17 16 17 17 17 18 18 18 20 23 25 26 27 28 28 28 29 29 30 30 30 30 30 31 31 31 31 31 31 31 32 32 32 32 33 33 33 34 34 34 34 34 35 35 35
25 25 24 23 23 23 23 23 23 25 25 25 25 25 26 26 26 27 27 27 26 25 23 22 22 21 21 20 20 20 20 20 20 20 19 18 17 17 17 17 17 17 16 16 17 17 18 17 18 19 22 25 26 27 27 28 28 29 29 29 30 30 30 30 30 30 30 31 31 31 31 31 31 32 32 32 32 33 33 33 34 34 34 34 34 34
24 23 23 23 24 25 25 25 25 26 27 28 28 29 30 30 30 29 27 25 24 23 22 22 21 21 21 21 20 19 19 19 19 19 18 18 17 17 17 17 17 17 17 17 17 17 17 17 18 18 20 24 25 26 27 28 28 28 29 29 29 29 30 30 30 30 30 30 30 31 31 31 31 31 32 32 32 32 32 33 33 33 34 34 34 34
24 24 25 25 27 29 29 29 30 31 32 32 32 31 30 29 27 25 23 23 22 22 22 21 21 20 19 19 18 17 17 18 18 19 18 18 17 17 17 17 17 17 17 17 17 17 17 17 17 18 19 21 24 26 27 27 28 28 28 29 29 29 29 30 30 30 30 30 30 30 31 31 31 31 31 31 32 32 32 32 33 33 33 33 34 34
27 28 28 29 31 32 33 34 34 34 33 32 29 27 25 25 24 24 23 23 22 22 21 21 20 19 18 18 17 17 17 17 18 18 18 18 17 17 17 17 17 16 17 17 17 17 17 17 17 18 18 20 22 25 26 27 27 28 28 28 28 29 29 29 29 30 30 30 30 30 30 31 31 31 31 31 31 31 32 32 32 33 33 33 33 33
30 30 31 32 32 33 33 32 32 31 30 29 27 26 25 25 24 23 22 22 22 21 21 20 19 18 17 17 16 17 17 18 18 18 19 18 18 17 17 17 17 17 17 17 17 18 19 19 19 19 18 19 21 23 25 26 27 27 27 28 28 28 28 29 29 29 29 30 30 30 30 30 30 31 31 31 31 31 31 32 32 32 32 32 32 32
30 31 31 31 31 30 30 29 29 28 27 27 27 27 26 25 24 23 22 22 21 21 20 19 18 17 17 17 17 17 17 17 18 18 19 18 17 17 17 17 17 17 17 17 19 20 21 21 20 19 19 19 19 21 23 25 26 26 27 27 27 28 28 28 28 29 29 29 30 30 30 30 30 30 30 30 31 31 31 31 31 32 31 31 30 30
30 30 30 29 28 27 26 26 25 26 26 26 26 26 25 24 23 22 21 21 21 21 20 19 19 18 18 18 17 17 17 16 17 18 18 18 17 17 17 17 17 17 17 18 19 19 19 19 19 18 18 19 19 20 21 23 24 25 25 26 27 27 27 27 28 28 29 29 29 29 30 30 30 30 30 30 30 30 31 31 31 30 30 30 30 30
26 25 24 24 24 23 23 23 24 25 25 25 25 25 25 23 22 21 21 21 21 21 20 20 20 19 19 18 18 17 16 16 16 18 19 18 17 17 17 17 17 18 18 19 18 17 16 17 17 17 17 19 19 19 19 20 21 21 22 24 25 25 26 27 27 28 28 28 29 29 29 30 30 30 30 30 30 30 30 31 30 30 29 29 29 29
21 20 19 19 20 20 21 21 22 23 24 24 25 24 23 22 21 21 21 21 21 21 21 20 20 20 20 19 17 16 15 16 17 19 19 19 18 18 18 18 19 19 20 19 18 17 16 16 16 17 18 19 19 19 19 19 19 19 20 21 22 23 25 26 26 27 27 28 28 29 29 29 29 29 30 30 30 30 30 30 30 30 28 28 29 29
18 19 18 18 19 19 20 20 21 21 21 22 22 22 22 22 22 21 21 21 21 21 21 21 21 20 20 19 18 17 16 16 18 20 20 19 19 19 19 19 19 19 20 20 19 18 16 16 16 17 18 19 19 19 20 20 20 20 20 20 21 22 25 25 26 26 26 27 27 28 28 28 29 29 29 30 30 30 30 30 30 30 28 28 28 28
19 19 19 19 19 20 20 20 20 20 21 20 21 21 21 21 22 22 21 21 21 21 21 21 21 20 20 19 19 18 18 17 19 21 21 21 20 20 20 19 19 19 20 20 20 19 18 18 18 18 18 19 19 19 19 20 21 21 21 21 21 21 23 24 24 24 25 25 26 27 27 28 28 28 29 29 30 30 30 30 30 30 29 28 28 28
19 19 19 20 20 20 20 20 21 20 20 20 20 20 20 21 21 21 21 21 21 21 21 21 21 20 20 19 19 18 18 17 19 21 22 21 21 20 20 20 19 19 19 19 19 19 18 18 18 18 18 18 19 19 19 20 21 21 21 21 21 21 21 22 22 22 23 24 24 24 25 25 27 28 28 29 29 29 30 30 30 30 30 29 29 29
20 20 20 20 20 20 20 20 20 20 20 20 20 20 20 20 20 20 21 21 21 21 21 21 21 21 21 20 19 19 18 18 20 22 23 22 22 21 21 20 19 19 19 19 19 18 18 18 18 18 18 18 18 19 19 19 20 20 21 21 21 21 21 21 22 22 22 23 22 23 23 24 25 25 26 27 28 29 30 30 30 30 30 30 30 30
20 21 21 20 20 20 19 20 20 19 19 19 19 19 19 19 19 20 20 21 21 21 22 22 22 22 21 21 21 20 20 19 21 22 23 23 22 22 21 20 20 20 20 19 19 19 18 18 19 19 19 18 18 18 18 19 19 20 20 21 21 21 21 22 22 22 22 22 22 22 22 23 24 25 25 27 28 29 30 30 30 30 30 30 30 30
20 20 20 20 19 19 19 19 19 19 18 18 18 19 19 19 19 19 20 21 21 22 22 22 22 22 23 22 22 21 21 21 21 22 23 23 23 22 21 21 21 21 21 20 20 20 19 19 18 18 18 17 17 17 17 18 19 19 20 20 21 21 21 22 23 23 22 23 23 23 24 24 24 25 26 28 28 29 29 30 30 30 30 30 30 30
20 20 20 19 19 19 18 18 18 18 18 18 18 19 19 19 19 20 20 21 21 22 21 21 21 21 22 23 23 23 22 21 21 22 23 23 23 23 22 22 22 22 21 21 21 21 20 19 18 17 17 17 17 18 19 19 19 19 20 20 21 21 21 22 23 23 23 23 24 24 25 25 25 25 25 26 26 26 26 27 28 29 30 30 30 30
20 19 19 19 19 18 18 18 18 18 18 19 19 19 19 20 20 20 20 20 20 21 20 20 20 20 21 23 23 24 24 24 24 24 25 25 24 24 23 22 22 22 22 22 22 21 21 20 19 18 17 17 18 18 19 19 19 19 20 20 21 21 22 22 23 23 23 23 24 24 25 25 24 24 24 25 25 25 25 25 26 27 28 27 28 29
20 19 19 19 19 19 18 18 19 19 19 19 20 21 20 20 20 20 19 19 20 20 20 20 21 21 21 22 22 23 23 24 25 25 25 25 24 24 23 22 22 22 22 22 22 22 21 21 20 20 19 19 18 19 19 19 19 20 21 21 20 21 21 22 22 22 23 23 23 24 24 24 24 24 24 24 24 24 24 24 25 25 26 26 25 25
20 19 19 19 19 19 19 19 19 19 20 20 20 20 20 20 19 19 19 19 20 20 20 21 21 21 21 21 21 21 21 23 23 24 24 23 24 24 23 22 22 22 22 22 22 22 22 21 21 20 20 19 20 20 20 20 21 21 22 21 21 21 21 22 23 23 23 23 23 24 24 24 24 24 24 25 25 25 25 25 25 25 26 25 25 25
20 19 19 18 18 18 18 19 20 20 21 20 20 19 19 19 19 19 19 19 19 20 20 20 20 20 20 20 20 21 21 22 22 23 23 23 23 23 23 22 22 22 22 21 21 21 21 21 21 21 20 20 20 20 19 20 20 21 21 21 21 21 22 23 23 22 22 23 23 23 24 23 23 23 24 24 24 25 25 26 26 27 27 26 26 26
19 19 19 18 18 19 19 20 21 20 20 19 19 19 19 19 19 19 20 19 19 20 20 20 20 19 19 19 19 19 20 21 21 22 22 22 22 22 22 22 22 22 22 21 21 21 21 22 22 21 21 21 21 21 20 20 20 21 21 21 21 21 21 21 21 21 22 22 23 23 23 23 23 23 24 24 25 25 25 26 27 28 28 27 27 27
19 19 19 19 19 20 20 20 20 19 19 19 19 19 19 19 20 20 20 20 20 20 20 20 20 19 19 19 18 18 19 20 20 20 21 23 23 23 23 23 23 23 23 22 22 21 21 21 21 21 21 21 21 21 21 21 21 21 21 21 22 21 21 21 21 22 22 23 23 23 23 24 24 24 24 25 25 25 25 26 26 27 28 28 27 27
19 19 19 20 20 19 19 19 19 19 19 19 19 19 19 19 20 20 20 20 20 20 20 20 20 19 18 18 18 18 18 19 19 20 20 22 24 25 25 24 23 22 22 22 22 22 22 21 21 21 21 21 21 21 21 21 21 21 21 22 22 22 22 22 22 22 22 22 23 23 23 24 24 24 24 24 24 25 25 26 26 26 27 27 27 27
20 20 20 19 19 19 19 19 19 19 19 19 19 19 19 19 19 20 20 20 20 20 20 20 20 19 18 18 18 18 18 18 18 19 19 20 21 22 23 23 23 23 22 22 23 23 22 22 22 22 22 22 21 21 21 21 21 21 21 22 22 22 22 22 22 22 22 22 22 23 23 24 24 24 24 25 25 25 25 26 26 26 26 27 27 27
19 19 19 19 18 18 18 18 18 18 18 18 18 19 19 19 19 19 20 20 20 20 20 20 20 19 18 18 18 18 18 18 18 18 19 19 20 21 21 22 23 23 23 23 23 23 23 24 24 23 23 22 21 21 21 21 21 21 21 21 21 21 21 21 22 22 22 23 23 24 24 25 25 25 25 25 25 25 25 25 26 26 26 26 27 27
19 19 19 18 18 18 18 18 18 18 18 18 18 18 19 19 20 20 20 20 20 20 20 19 19 19 18 18 18 18 19 18 19 19 19 19 20 21 21 21 21 22 23 23 24 24 24 24 25 24 24 23 22 21 21 21 21 21 21 21 21 21 21 22 22 23 23 24 25 26 26 26 26 25 25 25 25 25 24 25 25 25 25 26 26 26
19 19 18 18 18 18 17 17 17 17 17 17 18 18 18 20 21 21 20 20 20 19 19 19 19 18 18 18 18 19 19 19 19 19 19 20 20 20 21 21 21 21 21 22 22 22 23 24 24 24 24 23 23 22 21 21 21 21 22 22 22 22 22 23 23 24 24 25 26 27 28 27 26 26 25 25 24 24 23 24 24 24 25 25 26 26
19 18 18 18 18 17 17 17 17 17 17 18 18 18 18 19 19 19 19 19 19 19 19 19 19 18 18 18 18 19 19 19 19 19 20 20 20 21 21 21 21 21 21 21 21 21 21 21 22 24 25 25 25 24 23 22 22 22 22 22 23 23 23 23 24 25 25 25 26 27 27 27 26 26 25 25 24 23 23 23 23 24 25 25 25 26
18 18 18 18 17 17 17 17 17 18 18 18 18 18 18 18 19 19 19 19 19 19 19 19 19 19 18 18 19 19 19 19 19 19 20 20 20 21 21 21 21 21 21 20 20 19 19 19 19 20 21 24 25 25 24 23 23 23 23 23 23 23 24 24 25 25 26 26 26 26 26 26 25 25 25 25 24 23 23 22 22 23 24 24 25 25